Powrót do katalogu

STARLINK-31560

AktywnyŁącznośćVLEO
NORAD 59361·PAYLOAD·🇺🇸 United States

Wystrzelony Mar 31, 2024 z Cape Canaveral Space Force Station

Loading…

Następne Przeloty (najbliższe 24 godziny)

TLE

ŚwieżeSource: CelesTrak SupGP

Epoka: Sep 14, 2026, 22:25 UTC

1 59361C 24060P   26257.93451389  .00036543  00000+0  13240-2 0  2579
2 59361  42.9990 271.2544 0001513 265.4710  91.4221 15.27549151    19

Śledź STARLINK-31560 w czasie rzeczywistym z AllMySat

Download on the App Store